Location: Newark
(44.3681°N, 100.3364°W)
Time: 09:02:18
(UTC+00:00)

Explorer 7 - Pass Details

Date: 18 February 2020
Orbit: 485 x 679 km, 50.3° (Epoch: 08 April)

Event Time Altitude Azimuth Distance (km) Brightness Sun altitude
Rises 20:52:37 0° 249° (WSW) 2,904 11.3 28.0°
Reaches altitude 10° 20:55:00 10° 251° (WSW) 1,968 10.6 27.8°
Maximum altitude 20:59:30 70° 336° (NNW) 624 7.4 27.4°
Drops below altitude 10° 21:03:43 10° 60° (ENE) 1,849 9.1 26.9°
Sets 21:05:54 0° 63° (ENE) 2,712 9.9 26.7°
